Location: Ertinghausen
(51.6624°N, 9.7874°E)
Time: 11:39:57
(UTC+00:00)

Cosmos 2251 Rocket - Pass Details

Date: 23 May 2024
Orbit: 762 x 790 km, 74.0° (Epoch: 18 June)

Event Time Altitude Azimuth Distance (km) Brightness Sun altitude
Exits shadow 00:44:27 17° 238° (WSW) 1,866 5.0 -15.2°
Maximum altitude 00:48:10 43° 304° (WNW) 1,071 4.3 -15.0°
Drops below altitude 10° 00:53:14 10° 16° (NNE) 2,334 7.4 -14.7°
Sets 00:55:45 0° 23° (NNE) 3,270 8.7 -14.6°
